Location: North Runcton
(52.7000°N, 0.4333°E)
Time: 19:39:17
(UTC+00:00)

NOSS 3-1 (C) - Pass Details

Date: 19 May 2025
Orbit: 625 x 1577 km, 63.4° (Epoch: 18 June)

Event Time Altitude Azimuth Distance (km) Brightness Sun altitude
Rises 22:06:44 0° 227° (SW) 3,008 5.9 -13.6°
Reaches altitude 10° 22:08:52 10° 228° (SW) 2,163 5.2 -13.8°
Maximum altitude 22:13:45 85° 316° (NW) 805 3.1 -14.1°
Drops below altitude 10° 22:19:51 10° 47° (NE) 2,677 6.1 -14.5°
Sets 22:22:44 0° 48° (NE) 3,782 6.8 -14.6°
